DMSP 5D-2 F13 DEB, 40401

Orbit data source: Space-Track

DMSP 5D-2 F13 DEB, 40401 is space debris in SSO originally from a launch on Fri, 24 Mar 1995 UTC launched from the Air Force Western Test Range (AFWTR). Debris objects in space refer to the collection of defunct objects orbiting the Earth. Examples of debris include non-operational satellites, rocket bodies, and fragments generated from explosions, collisions, or faulty payload assembly.

Loading next visibility...
Identifier
40401, 1995-015N
Orbit
SSO
Country
Flag of USUS
Related business
Manufacturer
Unknown
Mission
Spacecraft
Bus & Motor
Unknown
Mass
Unknown
Launch date (UTC)
1995-03-24 (31 years ago)
Launch vehicle
Unknown
Launch site
Air Force Western Test Range (AFWTR)
Object type
Payload
Rocket body
Debris
Shape & HBR
Unknown shape, 0.1 m
Radar Cross Section
Small (<0.1 m²)

Expand to show TLE details & history
Last TLE update: 2 days ago

TLE from 2 days ago
0 DMSP 5D-2 F13 DEB
1 40401U 95015N   25340.14485099  .00007267  00000-0  34326-2 0  9995
2 40401  98.9676 312.9286 0052020 317.0175  42.6941 14.19332700553278
Epoch: 2025-12-06T03:28Z
TLE epoch observation values (Epoch: 2025-12-06T03:28:35.125Z)
Latitude
-0.00008°
Longitude
-174.39454°
Altitude
803.05 km
Speed
7.466 km/s
True Right ascension
20h 51m 42s
True Declination
0° 00' 00"
Sunlit
Object was in daylight at epoch
Visualization orbit readout
Latitude
Unknown
Longitude
Unknown
Altitude
Unknown
Speed
Unknown
Apparent Right ascension
Unknown
Apparent Declination
Unknown
Sunlit
N/A
Visualization observer readout
Local Sidereal Time
15:04:01
Azimuth
Unknown
Elevation
Unknown
Doppler factor
Unknown
Orbital elements
Apogee altitude
862.252 km
Perigee altitude
787.313 km
Semi-major axis
7,202.919 km
Eccentricity
0.0052
Inclination
98.9676°
RAAN
312.9286°
Arg. of periapsis
317.0175°
True anomaly
43.10025°
Mean anomaly
42.6941°
Eccentric anomaly
42.89698°
Mean motion
3.55043 °/min
Orbital period
101.4 mins
BSTAR
0.0034326
Loading maneuver chart data...
Computing Atmospheric mass density...

Documentation

Showing up to 5 results
|